�������C�����ː����j�^�v���󋵏��
Date,Time,Cs137(Bq/L),Cs134(Bq/L),�S��(Bq/L)
2017/02/15,00:00,1.0,0.11,11
2017/02/15,00:10,1.0,0.11,11
2017/02/15,00:20,0.99,0.11,11
2017/02/15,00:30,0.99,0.12,9.5
2017/02/15,00:40,0.99,0.11,ND
2017/02/15,00:50,0.98,0.11,ND
2017/02/15,01:00,0.96,0.10,ND
2017/02/15,01:10,0.96,0.098,ND
2017/02/15,01:20,0.95,0.094,ND
2017/02/15,01:30,0.92,0.10,ND
2017/02/15,01:40,0.89,0.10,ND
2017/02/15,01:50,0.91,0.099,ND
2017/02/15,02:00,0.90,0.11,ND
2017/02/15,02:10,0.89,0.10,ND
2017/02/15,02:20,0.88,0.10,ND
2017/02/15,02:30,0.88,0.11,ND
2017/02/15,02:40,0.89,0.095,ND
2017/02/15,02:50,0.85,0.096,ND
2017/02/15,03:00,0.83,0.095,ND
2017/02/15,03:10,0.79,0.10,ND
2017/02/15,03:20,0.75,0.11,ND
2017/02/15,03:30,0.74,0.10,ND
2017/02/15,03:40,0.75,0.10,ND
2017/02/15,03:50,0.75,0.099,ND
2017/02/15,04:00,0.76,0.090,ND
2017/02/15,04:10,0.76,0.090,ND
2017/02/15,04:20,0.77,0.074,ND
2017/02/15,04:30,0.79,0.063,ND
2017/02/15,04:40,0.77,0.066,9.7
2017/02/15,04:50,0.76,0.069,10
2017/02/15,05:00,0.76,0.069,9.6
2017/02/15,05:10,0.78,0.065,10
2017/02/15,05:20,0.77,0.070,10
2017/02/15,05:30,0.77,0.075,10
2017/02/15,05:40,0.77,0.076,9.2
2017/02/15,05:50,0.77,0.074,9.2
2017/02/15,06:00,0.78,0.074,10
2017/02/15,06:10,0.77,0.079,11
2017/02/15,06:20,0.75,0.081,11
2017/02/15,06:30,0.73,0.082,13
2017/02/15,06:40,0.73,0.080,13
2017/02/15,06:50,0.72,0.081,13
2017/02/15,07:00,0.70,0.090,13
2017/02/15,07:10,0.71,0.084,12
2017/02/15,07:20,0.71,0.091,9.9
2017/02/15,07:30,0.71,0.10,8.9
2017/02/15,07:40,0.70,0.098,9.2
2017/02/15,07:50,0.70,0.10,9.7
2017/02/15,08:00,0.74,0.078,ND
2017/02/15,08:10,0.75,0.073,ND
2017/02/15,08:20,0.77,0.062,ND
2017/02/15,08:30,0.78,0.046,ND
2017/02/15,08:40,0.79,0.047,ND
2017/02/15,08:50,0.79,0.045,ND
2017/02/15,09:00,0.77,0.056,ND
2017/02/15,09:10,0.75,0.061,9.0
2017/02/15,09:20,0.74,0.067,11
2017/02/15,09:30,0.75,0.079,14
2017/02/15,09:40,0.76,0.076,14
2017/02/15,09:50,0.76,0.077,13
2017/02/15,10:00,0.77,0.079,12
2017/02/15,10:10,0.78,0.085,11
2017/02/15,10:20,0.78,0.084,11
2017/02/15,10:30,0.78,0.076,8.8
2017/02/15,10:40,0.77,0.070,ND
2017/02/15,10:50,0.75,0.075,ND
2017/02/15,11:00,0.76,0.076,ND
2017/02/15,11:10,0.76,0.078,ND
2017/02/15,11:20,0.76,0.074,ND
2017/02/15,11:30,0.77,0.075,ND
2017/02/15,11:40,0.80,0.077,ND
2017/02/15,11:50,0.83,0.072,ND
2017/02/15,12:00,0.84,0.074,ND
2017/02/15,12:10,0.86,0.057,ND
2017/02/15,12:20,0.86,0.061,ND
2017/02/15,12:30,0.83,0.075,10
2017/02/15,12:40,0.81,0.076,14
2017/02/15,12:50,0.79,0.091,14
2017/02/15,13:00,0.81,0.085,16
2017/02/15,13:10,0.79,0.11,13
2017/02/15,13:20,0.82,0.10,12
2017/02/15,13:30,0.83,0.11,10
2017/02/15,13:40,0.84,0.10,11
2017/02/15,13:50,0.83,0.096,11
2017/02/15,14:00,0.83,0.090,9.3
2017/02/15,14:10,0.83,0.081,11
2017/02/15,14:20,0.82,0.089,11
2017/02/15,14:30,0.84,0.080,12
2017/02/15,14:40,0.86,0.073,ND
2017/02/15,14:50,0.87,0.077,ND
2017/02/15,15:00,0.86,0.077,ND
2017/02/15,15:10,0.87,0.080,ND
2017/02/15,15:20,0.87,0.077,ND
2017/02/15,15:30,0.85,0.082,ND
2017/02/15,15:40,0.85,0.085,ND
2017/02/15,15:50,0.85,0.086,ND
2017/02/15,16:00,0.83,0.086,9.3
2017/02/15,16:10,0.84,0.080,ND
2017/02/15,16:20,0.83,0.076,9.7
2017/02/15,16:30,0.83,0.064,10
2017/02/15,16:40,0.82,0.067,11
2017/02/15,16:50,0.80,0.068,11
2017/02/15,17:00,0.81,0.072,ND
2017/02/15,17:10,0.81,0.077,10
2017/02/15,17:20,0.80,0.085,ND
2017/02/15,17:30,0.79,0.088,ND
2017/02/15,17:40,0.80,0.079,ND
2017/02/15,17:50,0.81,0.076,ND
2017/02/15,18:00,0.79,0.078,ND
2017/02/15,18:10,0.78,0.078,ND
2017/02/15,18:20,0.80,0.071,ND
2017/02/15,18:30,0.82,0.068,ND
2017/02/15,18:40,0.79,0.078,9.0
2017/02/15,18:50,0.80,0.072,ND
2017/02/15,19:00,0.81,0.068,ND
2017/02/15,19:10,0.82,0.067,ND
2017/02/15,19:20,0.79,0.065,ND
2017/02/15,19:30,0.77,0.077,ND
2017/02/15,19:40,0.79,0.073,ND
2017/02/15,19:50,0.73,0.097,ND
2017/02/15,20:00,0.74,0.083,ND
2017/02/15,20:10,0.73,0.10,ND
2017/02/15,20:20,0.75,0.10,ND
2017/02/15,20:30,0.75,0.090,ND
2017/02/15,20:40,0.77,0.090,ND
2017/02/15,20:50,0.80,0.079,ND
2017/02/15,21:00,0.79,0.090,ND
2017/02/15,21:10,0.80,0.081,ND
2017/02/15,21:20,0.79,0.086,ND
2017/02/15,21:30,0.82,0.083,ND
2017/02/15,21:40,0.81,0.093,ND
2017/02/15,21:50,0.82,0.090,ND
2017/02/15,22:00,0.84,0.080,ND
2017/02/15,22:10,0.85,0.077,ND
2017/02/15,22:20,0.89,0.076,ND
2017/02/15,22:30,0.88,0.072,ND
2017/02/15,22:40,0.88,0.064,ND
2017/02/15,22:50,0.88,0.069,ND
2017/02/15,23:00,0.85,0.079,ND
2017/02/15,23:10,0.85,0.084,ND
2017/02/15,23:20,0.85,0.081,ND
2017/02/15,23:30,0.86,0.082,ND
2017/02/15,23:40,0.85,0.089,ND
2017/02/15,23:50,0.87,0.081,ND
